[[{"header":{"parameterUnit":"m.s-1","parameterCategory":2,"la1":30.2991,"la2":30.254,"lo1":-89.0895,"lo2":-89.0444,"dy":0.0017,"dx":0.0017,"nx":28,"ny":28,"refTime":"2025-07-20T21:00:00:Z","depth":"0","parameterNumber":2,"parameterNumberName":"U-component_of_CURRENTS"},"data":[0,0,0,0,0,0,0,0,0,0,0,0,0,0,0,0,0,0,0,0,0,0,0,0,0,0,0,0,0,0,0,0,0,0,0,0,0,0,0,0,0,0,0,0,0,0,0,0,0,0,0,0,0,0,0,0,0,0,-0.1424,-0.1425,0,-0.1464,-0.1464,-0.1465,-0.1399,-0.1397,-0.1394,-0.1392,-0.1399,-0.1401,-0.1403,0,0,0,0,0,0,0,0,0,0,0,0,0,-0.1413,-0.1413,-0.1424,-0.1425,-0.1425,-0.1464,-0.1464,-0.1465,-0.1399,-0.1396,-0.1394,-0.1391,-0.1398,-0.1401,-0.1403,0,0,0,0,0,0,0,0,0,0,0,0,0,-0.1432,-0.1413,-0.1424,-0.1397,-0.1395,-0.1464,-0.1464,-0.1465,-0.14,-0.1396,-0.1393,-0.139,-0.1397,-0.14,-0.1404,-0.1494,0,0,-0.1414,-0.1416,0,0,0,0,0,0,0,0,-0.1431,-0.1433,-0.14,-0.1399,-0.1396,-0.1422,-0.1463,-0.1473,-0.1401,-0.1398,-0.1392,-0.1388,-0.1406,-0.1408,-0.1424,-0.1494,-0.1494,-0.1415,-0.1417,-0.1418,-0.1419,0,0,0,0,0,0,0,-0.143,-0.1431,-0.144,-0.1401,-0.1399,-0.1424,-0.1422,-0.1465,-0.1421,-0.1398,-0.1393,-0.1398,-0.1404,-0.1421,-0.1424,-0.1494,-0.1414,-0.1418,-0.142,-0.1421,-0.159,-0.1592,0,0,0,0,0,0,-0.1422,-0.143,-0.1439,-0.1441,-0.1405,-0.1427,-0.1424,-0.1418,-0.1421,-0.1418,-0.1401,-0.1395,-0.1417,-0.142,-0.1424,-0.1501,-0.1418,-0.1421,-0.1423,-0.1588,-0.1591,-0.1593,0,0,0,0,0,0,-0.1421,-0.1422,-0.1437,-0.1437,-0.144,-0.1429,-0.1424,-0.1421,-0.1415,-0.1423,-0.1419,-0.1396,-0.1415,-0.1419,-0.1462,-0.1501,-0.1423,-0.1426,-0.1585,-0.1588,-0.1592,-0.1673,0,0,0,0,0,0,-0.142,-0.1421,-0.1415,-0.1436,-0.144,-0.1473,-0.1427,-0.1424,-0.1425,-0.1417,-0.1419,-0.1417,-0.1412,-0.1458,-0.1466,-0.1504,-0.1429,-0.1582,-0.1586,-0.1591,-0.1667,-0.1679,-0.1689,0,0,0,0,0,-0.142,-0.1419,-0.1414,-0.1415,-0.143,-0.1474,-0.148,-0.1461,-0.1428,-0.1441,-0.1445,-0.1415,-0.1491,-0.1463,-0.1472,-0.1512,-0.1579,-0.1585,-0.159,-0.1663,-0.1677,-0.1689,0,0,0,0,0,0,-0.1406,-0.1413,-0.1407,-0.1406,-0.1438,-0.1462,-0.1467,-0.1464,-0.1481,-0.1462,-0.1458,-0.146,-0.1509,-0.1509,-0.1477,-0.1574,-0.1527,-0.1535,-0.1579,-0.1593,-0.1603,-0.1571,-0.1432,0,0,0,0,0,-0.1405,-0.1402,-0.1429,-0.143,-0.1442,-0.1458,-0.1471,-0.1467,-0.1485,-0.1486,-0.1497,-0.1512,-0.1549,-0.1563,-0.1592,-0.1658,-0.1606,-0.1687,-0.1698,-0.1707,-0.1688,-0.1683,-0.169,-0.1611,-0.1611,-0.1611,0,0,-0.1402,-0.1404,-0.1403,-0.1428,-0.1442,-0.148,-0.1456,-0.1477,-0.1515,-0.149,-0.1538,-0.1552,-0.1574,-0.1639,-0.1661,-0.1638,-0.1697,-0.1714,-0.1721,-0.1696,-0.1689,-0.1696,-0.1703,-0.1615,-0.1614,-0.1613,0,0,-0.1396,-0.1396,-0.1393,-0.1429,-0.1456,-0.1485,-0.1491,-0.1527,-0.1543,-0.1611,-0.1596,-0.1629,-0.1695,-0.1714,-0.1733,-0.1826,-0.1754,-0.1839,-0.1872,-0.1869,-0.1874,-0.1878,-0.1788,-0.1784,-0.1846,-0.1846,-0.1846,0,-0.1389,-0.1386,-0.1406,-0.1427,-0.1454,-0.1488,-0.1514,-0.1565,-0.1614,-0.1641,-0.1629,-0.1715,-0.1731,-0.18,-0.1827,-0.1848,-0.1801,-0.182,-0.188,-0.1883,-0.1886,-0.1793,-0.1787,-0.1851,-0.185,-0.185,-0.1849,0,-0.1388,-0.1397,-0.1405,-0.1441,-0.1487,-0.1516,-0.1591,-0.1645,-0.1675,-0.1713,-0.1784,-0.1818,-0.1854,-0.1883,-0.1886,-0.193,-0.1871,-0.1891,-0.1838,-0.1898,-0.1796,-0.1789,-0.1857,-0.1856,-0.1854,-0.1853,0,0,-0.1333,-0.1388,-0.1388,-0.1401,-0.1491,-0.1519,-0.1623,-0.1707,-0.1743,-0.1821,-0.1854,-0.1948,-0.194,-0.196,-0.1971,-0.1975,-0.1953,-0.1941,-0.1939,-0.1833,-0.1875,-0.1656,-0.1625,-0.1986,-0.1987,-0.1987,-0.1781,0,-0.1317,-0.1336,-0.1389,-0.1434,-0.1451,-0.1549,-0.1637,-0.1727,-0.1798,-0.185,-0.191,-0.1942,-0.1982,-0.1977,-0.2005,-0.1952,-0.1941,-0.2001,-0.1846,-0.1839,-0.1625,-0.1614,-0.1557,-0.1354,-0.1773,-0.1772,-0.1771,0,-0.1285,-0.1301,-0.1328,-0.1406,-0.1425,-0.1474,-0.1589,-0.1671,-0.1792,-0.1843,-0.1912,-0.1939,-0.1965,-0.1982,-0.1944,-0.1977,-0.1932,-0.1896,-0.1888,-0.1645,-0.1607,-0.1372,-0.1323,-0.1428,-0.1758,-0.1759,-0.176,0,-0.1195,-0.1255,-0.1263,-0.1294,-0.1404,-0.1443,-0.1509,-0.1646,-0.1688,-0.1804,-0.18,-0.1894,-0.1843,-0.1877,-0.1779,-0.1878,-0.166,-0.1798,-0.1559,-0.154,-0.1435,-0.1406,-0.1452,-0.1772,-0.1773,-0.1773,-0.1774,0,-0.1141,-0.1151,-0.1209,-0.1215,-0.1229,-0.1347,-0.1376,-0.1488,-0.158,-0.1584,-0.1747,-0.1712,-0.1811,-0.1707,-0.1719,-0.1523,-0.1609,-0.1521,-0.1475,-0.1456,-0.1432,-0.147,-0.1534,-0.1765,-0.1767,-0.1769,-0.177,0,-0.1049,-0.1089,-0.1094,-0.1169,-0.1176,-0.1185,-0.1246,-0.1271,-0.1389,-0.1384,-0.1401,-0.15,-0.1383,-0.1378,-0.1322,-0.1344,-0.1226,-0.1159,-0.1061,-0.1008,-0.0984,-0.1051,-0.0925,-0.0894,-0.0957,-0.095,-0.0944,0,-0.1004,-0.0991,-0.1014,-0.099,-0.1011,-0.1022,-0.1026,-0.1151,-0.1166,-0.1225,-0.119,-0.1103,-0.1024,-0.0814,-0.08,-0.0708,-0.0866,-0.0636,-0.0862,-0.0918,-0.0965,-0.1047,-0.1041,-0.0753,-0.0746,-0.0741,-0.0737,0,-0.0914,-0.0917,-0.0915,-0.0871,-0.0841,-0.0809,-0.0817,-0.0796,-0.092,-0.0906,-0.085,-0.0787,-0.0595,-0.0465,-0.0307,-0.0321,-0.067,-0.052,-0.0658,-0.0838,-0.0854,-0.0821,-0.0901,-0.0688,-0.0693,-0.0696,-0.0699,-0.0701,-0.0831,-0.0805,-0.0792,-0.0751,-0.0703,-0.0631,-0.0582,-0.0582,-0.055,-0.0533,-0.0515,-0.0381,-0.0295,-0.0094,-0.0084,-0.0138,-0.024,-0.0307,-0.0382,-0.046,-0.0439,-0.0325,-0.0016,-0.0017,-0.0017,-0.0018,-0.0019,0,-0.0737,-0.0723,-0.0676,-0.0616,-0.0539,-0.055,-0.0474,-0.0424,-0.0341,-0.0265,-0.0182,-0.001,0.0079,0.0056,0.001,-0.0073,-0.0189,-0.0147,-0.0378,-0.0383,-0.0357,-0.0364,-0.0018,-0.0018,-0.0018,-0.0018,-0.0018,-0.0018,-0.0685,-0.0628,-0.0621,-0.0484,-0.044,-0.0326,-0.027,-0.0188,-0.0119,0.0049,0.0175,0.0281,0.0218,-0.0055,-0.0232,-0.0241,-0.0387,-0.0279,-0.0354,-0.0509,-0.0538,-0.0565,-0.0594,-0.0302,-0.0302,-0.0401,-0.0402,-0.0403]},{"header":{"parameterUnit":"m.s-1","parameterCategory":2,"la1":30.2991,"la2":30.254,"lo1":-89.0895,"lo2":-89.0444,"dy":0.0017,"dx":0.0017,"nx":28,"ny":28,"refTime":"2025-07-20T21:00:00:Z","depth":"0","parameterNumber":3,"parameterNumberName":"V-component_of_CURRENTS"},"data":[0,0,0,0,0,0,0,0,0,0,0,0,0,0,0,0,0,0,0,0,0,0,0,0,0,0,0,0,0,0,0,0,0,0,0,0,0,0,0,0,0,0,0,0,0,0,0,0,0,0,0,0,0,0,0,0,0,0,-0.0043,-0.0043,0,-0.0011,-0.0011,-0.001,0.0052,0.0053,0.0055,0.0056,0.0109,0.011,0.011,0,0,0,0,0,0,0,0,0,0,0,0,0,-0.0044,-0.0044,-0.0044,-0.0043,-0.0043,-0.0011,-0.0011,-0.001,0.0052,0.0054,0.0055,0.0056,0.0109,0.011,0.011,0,0,0,0,0,0,0,0,0,0,0,0,0,-0.003,-0.0044,-0.0044,-0.0009,-0.0005,-0.0011,-0.001,-0.001,0.0052,0.0054,0.0055,0.0057,0.0109,0.0109,0.011,0.0079,0,0,0.0112,0.0112,0,0,0,0,0,0,0,0,-0.0031,-0.003,-0.0014,-0.0011,-0.0007,0.0018,0.0009,0.0021,0.0051,0.0031,0.0056,0.0058,0.0079,0.0082,0.0085,0.0082,0.0084,0.0112,0.0112,0.0112,0.0112,0,0,0,0,0,0,0,-0.0032,-0.0031,-0.003,-0.0014,-0.001,0.0008,0.0012,0.0012,0.0046,0.0033,0.0037,0.0039,0.0081,0.0084,0.0087,0.0085,0.0112,0.0112,0.0113,0.0113,0.0111,0.0111,0,0,0,0,0,0,-0.004,-0.0032,-0.0031,-0.0029,-0.0016,0.0006,0.0011,0.0009,0.0046,0.0053,0.0037,0.0042,0.0083,0.0086,0.0089,0.0094,0.0112,0.0113,0.0113,0.0111,0.0111,0.0111,0,0,0,0,0,0,-0.004,-0.0041,-0.0032,-0.003,-0.0028,0.0005,0.0002,0.0008,0.0019,0.0049,0.0057,0.0042,0.0084,0.0088,0.0087,0.0095,0.0113,0.0114,0.0112,0.0111,0.0111,0.0079,0,0,0,0,0,0,-0.0041,-0.0041,-0.005,-0.0031,-0.0028,-0.005,0.0,0.0008,0.0016,0.0022,0.0054,0.0061,0.0086,0.0086,0.0088,0.0096,0.0114,0.0112,0.0112,0.0111,0.008,0.0077,0.0074,0,0,0,0,0,-0.0041,-0.0066,-0.0051,-0.0051,-0.004,-0.0052,-0.005,-0.0019,0.0014,0.0,0.0032,0.006,0.0084,0.0085,0.0088,0.0097,0.0113,0.0112,0.0111,0.0081,0.0078,0.0074,0,0,0,0,0,0,-0.0076,-0.0062,-0.0044,-0.0064,-0.0063,-0.0042,-0.005,-0.0026,-0.0012,0.0002,0.0042,0.0048,0.0056,0.0071,0.0072,0.0094,0.0108,0.0107,0.0085,0.0081,0.0079,0.007,0.0114,0,0,0,0,0,-0.0089,-0.0097,-0.0085,-0.0101,-0.0101,-0.0074,-0.0074,-0.0055,-0.0038,-0.0028,-0.0006,0.0025,0.0051,0.0061,0.0075,0.0073,0.0119,0.0084,0.0081,0.0079,0.0073,0.0153,0.0157,0.0108,0.0108,0.0108,0,0,-0.0104,-0.0099,-0.0102,-0.0108,-0.0098,-0.0125,-0.007,-0.0075,-0.0088,-0.0028,-0.0037,0.0007,0.0046,0.0055,0.0061,0.0071,0.0116,0.0077,0.0075,0.0071,0.0152,0.0158,0.0162,0.0107,0.0107,0.0107,0,0,-0.0149,-0.0137,-0.0161,-0.0172,-0.0169,-0.0159,-0.0164,-0.0148,-0.0129,-0.014,-0.0078,-0.0027,-0.0026,0.0031,0.0055,0.004,0.0096,0.0042,0.0024,0.0101,0.0106,0.0111,0.0179,0.019,0.0044,0.0044,0.0044,0,-0.0169,-0.0198,-0.0173,-0.0209,-0.0224,-0.018,-0.022,-0.0207,-0.0192,-0.0168,-0.0154,-0.0071,-0.0031,0.0026,0.0029,0.0038,0.008,0.0036,0.0099,0.0105,0.0111,0.0179,0.0192,0.0042,0.0042,0.0043,0.0043,0,-0.0232,-0.0263,-0.0282,-0.0309,-0.0326,-0.0353,-0.0337,-0.0335,-0.0302,-0.0265,-0.0207,-0.0137,-0.008,-0.0048,-0.0017,0.0052,0.0068,0.0086,0.0111,0.0114,0.0185,0.0199,0.004,0.0041,0.0041,0.0041,0,0,-0.0257,-0.0314,-0.0321,-0.0352,-0.038,-0.0396,-0.042,-0.0409,-0.0389,-0.0345,-0.0299,-0.022,-0.0145,-0.0111,-0.0037,0.0041,0.0133,0.0073,0.0078,0.0144,0.0295,0.0292,0.0308,0.016,0.0162,0.0164,0.0329,0,-0.0312,-0.0396,-0.041,-0.0489,-0.053,-0.0515,-0.0542,-0.052,-0.0469,-0.0416,-0.0293,-0.023,-0.018,-0.0127,-0.0046,0.0092,0.0167,0.0085,0.0277,0.0283,0.0284,0.0323,0.0364,0.0513,0.0344,0.0346,0.0348,0,-0.0367,-0.0417,-0.0505,-0.057,-0.0584,-0.0623,-0.0622,-0.0637,-0.0549,-0.0499,-0.0399,-0.0302,-0.0168,-0.0128,0.0092,0.0033,0.0149,0.0255,0.0264,0.028,0.0306,0.0481,0.0546,0.0659,0.037,0.0368,0.0367,0,-0.0386,-0.048,-0.0548,-0.0576,-0.0643,-0.0666,-0.0689,-0.0648,-0.0628,-0.0528,-0.0474,-0.0325,-0.0223,-0.0069,0.013,0.0117,0.0374,0.0388,0.0493,0.0495,0.0577,0.0581,0.0778,0.0534,0.0534,0.0533,0.0533,0,-0.0437,-0.0488,-0.056,-0.0599,-0.066,-0.0699,-0.0719,-0.0709,-0.066,-0.0606,-0.0507,-0.0417,-0.0203,-0.0033,0.0128,0.0353,0.0371,0.05,0.0542,0.0564,0.0565,0.0702,0.0723,0.0539,0.0538,0.0537,0.0536,0,-0.0438,-0.0494,-0.057,-0.0651,-0.0671,-0.0709,-0.0747,-0.074,-0.0711,-0.0633,-0.06,-0.045,-0.0254,-0.0047,0.0231,0.0359,0.0649,0.0638,0.0639,0.0676,0.0851,0.0865,0.106,0.1162,0.0786,0.0787,0.0788,0,-0.0444,-0.0488,-0.0584,-0.0616,-0.0651,-0.0706,-0.073,-0.0749,-0.0728,-0.064,-0.0588,-0.0415,-0.0274,0.0091,0.0346,0.0615,0.0709,0.0812,0.0792,0.0876,0.0925,0.0921,0.0992,0.0903,0.0905,0.0906,0.0907,0,-0.0442,-0.0474,-0.0527,-0.06,-0.0644,-0.0687,-0.0721,-0.072,-0.0713,-0.066,-0.0556,-0.0452,-0.0141,0.016,0.0475,0.0651,0.0886,0.0846,0.0962,0.1051,0.1035,0.1147,0.0764,0.092,0.0918,0.0918,0.0917,0.0916,-0.0415,-0.0449,-0.0516,-0.0578,-0.0617,-0.0649,-0.067,-0.0679,-0.0663,-0.0575,-0.0519,-0.0366,0.0017,0.0449,0.0628,0.1021,0.0981,0.1153,0.1173,0.1168,0.1235,0.0853,0.1022,0.1022,0.1021,0.1021,0.102,0,-0.0389,-0.0432,-0.0488,-0.056,-0.058,-0.0618,-0.0642,-0.0638,-0.0602,-0.0524,-0.0437,-0.0117,0.0298,0.0659,0.1196,0.1368,0.142,0.1453,0.1492,0.1561,0.1276,0.1249,0.1438,0.1438,0.1438,0.1438,0.1438,0.1437,-0.0381,-0.0425,-0.0469,-0.0508,-0.0541,-0.0557,-0.0566,-0.0548,-0.0502,-0.0346,-0.0208,-0.0083,0.0415,0.1118,0.1618,0.168,0.1828,0.1775,0.1866,0.1682,0.1656,0.1631,0.1615,0.1878,0.1879,0.2179,0.2182,0.2184]}],[{"header":{"parameterUnit":"m.s-1","parameterCategory":2,"la1":30.2991,"la2":30.254,"lo1":-89.0895,"lo2":-89.0444,"dy":0.0017,"dx":0.0017,"nx":28,"ny":28,"refTime":"2025-07-20T21:00:00:Z","depth":"2","parameterNumber":2,"parameterNumberName":"U-component_of_CURRENTS"},"data":[0,0,0,0,0,0,0,0,0,0,0,0,0,0,0,0,0,0,0,0,0,0,0,0,0,0,0,0,0,0,0,0,0,0,0,0,0,0,0,0,0,0,0,0,0,0,0,0,0,0,0,0,0,0,0,0,0,0,-0.198,-0.198,0,-0.2056,-0.2057,-0.2058,-0.2116,-0.2116,-0.2117,-0.2117,-0.2342,-0.2347,-0.2353,0,0,0,0,0,0,0,0,0,0,0,0,0,-0.1992,-0.1991,-0.1979,-0.198,-0.1981,-0.2056,-0.2057,-0.2058,-0.2116,-0.2116,-0.2117,-0.2117,-0.234,-0.2347,-0.2353,0,0,0,0,0,0,0,0,0,0,0,0,0,-0.2019,-0.199,-0.1979,-0.2019,-0.2023,-0.2056,-0.2057,-0.2058,-0.2115,-0.2116,-0.2117,-0.2118,-0.2338,-0.2346,-0.2354,-0.2389,0,0,-0.2379,-0.2383,0,0,0,0,0,0,0,0,-0.2017,-0.2019,-0.2012,-0.2016,-0.2021,-0.2077,-0.2144,-0.2177,-0.2115,-0.2081,-0.2117,-0.2118,-0.2267,-0.2281,-0.2291,-0.24,-0.241,-0.238,-0.2385,-0.2389,-0.2391,0,0,0,0,0,0,0,-0.2015,-0.2016,-0.201,-0.2013,-0.2019,-0.2071,-0.2074,-0.215,-0.2171,-0.2084,-0.2088,-0.2096,-0.227,-0.2283,-0.2297,-0.2413,-0.238,-0.2387,-0.2392,-0.2395,-0.2654,-0.2656,0,0,0,0,0,0,-0.1999,-0.2014,-0.2007,-0.2012,-0.2021,-0.2069,-0.2073,-0.2058,-0.2167,-0.2183,-0.2095,-0.2099,-0.2268,-0.2288,-0.2306,-0.2408,-0.2388,-0.2396,-0.2401,-0.2652,-0.2654,-0.2656,0,0,0,0,0,0,-0.1998,-0.1996,-0.2004,-0.2017,-0.2021,-0.2067,-0.2051,-0.206,-0.2085,-0.2174,-0.2194,-0.2113,-0.227,-0.2294,-0.2393,-0.2415,-0.24,-0.2407,-0.265,-0.2653,-0.2655,-0.2579,0,0,0,0,0,0,-0.1998,-0.1995,-0.1982,-0.2014,-0.202,-0.2046,-0.205,-0.206,-0.2088,-0.2093,-0.2196,-0.2217,-0.2272,-0.238,-0.2401,-0.2427,-0.2414,-0.2647,-0.2651,-0.2654,-0.2579,-0.2579,-0.2579,0,0,0,0,0,-0.1998,-0.1989,-0.198,-0.198,-0.1998,-0.2047,-0.2056,-0.2092,-0.2088,-0.2114,-0.2177,-0.2214,-0.2418,-0.2388,-0.2412,-0.2441,-0.2646,-0.265,-0.2654,-0.2579,-0.2579,-0.2579,0,0,0,0,0,0,-0.2008,-0.1994,-0.1986,-0.1977,-0.2014,-0.2057,-0.2084,-0.2093,-0.2156,-0.217,-0.2236,-0.2262,-0.2375,-0.2416,-0.238,-0.253,-0.254,-0.2549,-0.2475,-0.2476,-0.2475,-0.2409,-0.2421,0,0,0,0,0,-0.1994,-0.1973,-0.1992,-0.1991,-0.2007,-0.2039,-0.2061,-0.2088,-0.2143,-0.217,-0.2244,-0.2326,-0.2408,-0.2444,-0.2547,-0.2606,-0.2585,-0.2645,-0.2645,-0.2644,-0.261,-0.2582,-0.2573,-0.2671,-0.2671,-0.2671,0,0,-0.2011,-0.199,-0.1988,-0.199,-0.202,-0.2046,-0.2057,-0.2104,-0.2123,-0.2189,-0.2264,-0.2352,-0.2435,-0.2524,-0.2573,-0.2554,-0.2611,-0.2649,-0.2647,-0.2613,-0.2585,-0.2574,-0.2565,-0.2674,-0.2673,-0.2673,0,0,-0.2024,-0.2006,-0.1994,-0.2017,-0.2047,-0.2068,-0.2079,-0.2138,-0.2164,-0.2236,-0.2297,-0.2358,-0.2505,-0.2534,-0.2568,-0.2619,-0.2636,-0.2696,-0.2607,-0.2581,-0.257,-0.2561,-0.2521,-0.2509,-0.2662,-0.2662,-0.2662,0,-0.2051,-0.2009,-0.2012,-0.2013,-0.2033,-0.2073,-0.2094,-0.2123,-0.221,-0.2229,-0.2265,-0.2423,-0.2486,-0.2531,-0.2547,-0.2609,-0.2608,-0.2592,-0.2571,-0.2562,-0.2553,-0.2515,-0.2502,-0.2659,-0.2659,-0.266,-0.266,0,-0.2032,-0.2029,-0.204,-0.2029,-0.206,-0.2096,-0.2131,-0.2175,-0.221,-0.2236,-0.2323,-0.2393,-0.2463,-0.2508,-0.2535,-0.253,-0.2555,-0.2593,-0.2549,-0.2537,-0.25,-0.2488,-0.2654,-0.2655,-0.2656,-0.2657,0,0,-0.2058,-0.2025,-0.2035,-0.2034,-0.207,-0.2098,-0.2132,-0.2166,-0.2177,-0.2254,-0.227,-0.2356,-0.2383,-0.2421,-0.2473,-0.2426,-0.2352,-0.2471,-0.2471,-0.239,-0.2294,-0.2145,-0.2117,-0.2398,-0.2396,-0.2394,-0.229,0,-0.2059,-0.202,-0.2019,-0.2051,-0.2061,-0.2103,-0.2127,-0.2165,-0.2207,-0.2247,-0.2271,-0.2339,-0.2353,-0.2394,-0.2344,-0.241,-0.2319,-0.2376,-0.2354,-0.2352,-0.2185,-0.2096,-0.2023,-0.1909,-0.2278,-0.2276,-0.2275,0,-0.2047,-0.2023,-0.2007,-0.2037,-0.2049,-0.2078,-0.2116,-0.2145,-0.219,-0.2222,-0.2247,-0.2302,-0.229,-0.2295,-0.2258,-0.2313,-0.2262,-0.226,-0.2257,-0.2123,-0.2177,-0.1988,-0.1873,-0.2254,-0.2255,-0.2257,-0.2258,0,-0.202,-0.2037,-0.2003,-0.2014,-0.2044,-0.2066,-0.2099,-0.2144,-0.2178,-0.2209,-0.2246,-0.2247,-0.2283,-0.2227,-0.2191,-0.2247,-0.2121,-0.2206,-0.1993,-0.1984,-0.191,-0.1896,-0.2076,-0.2076,-0.2076,-0.2077,-0.2077,0,-0.1999,-0.2014,-0.1994,-0.1983,-0.2011,-0.2047,-0.2097,-0.2115,-0.2172,-0.2189,-0.223,-0.2234,-0.2269,-0.2218,-0.2162,-0.2012,-0.2079,-0.1924,-0.1922,-0.1885,-0.1871,-0.2176,-0.2189,-0.2073,-0.2074,-0.2074,-0.2075,0,-0.1998,-0.1963,-0.1951,-0.1959,-0.1992,-0.2009,-0.2118,-0.2155,-0.219,-0.2214,-0.2227,-0.2257,-0.2166,-0.2119,-0.2036,-0.1971,-0.1848,-0.1747,-0.1681,-0.1669,-0.1748,-0.176,-0.155,-0.1543,-0.1537,-0.1532,-0.1528,0,-0.1987,-0.1961,-0.1931,-0.1938,-0.1958,-0.2025,-0.209,-0.2158,-0.2194,-0.2194,-0.2195,-0.2134,-0.2025,-0.1844,-0.1732,-0.155,-0.1614,-0.136,-0.1412,-0.1661,-0.1682,-0.1703,-0.1722,-0.1312,-0.1307,-0.1303,-0.1299,0,-0.1995,-0.1953,-0.191,-0.1912,-0.1959,-0.2023,-0.2104,-0.2133,-0.2171,-0.2151,-0.2057,-0.1958,-0.1787,-0.158,-0.1354,-0.1247,-0.1401,-0.1259,-0.1524,-0.1438,-0.1423,-0.1449,-0.1479,-0.1259,-0.1263,-0.1266,-0.1268,-0.127,-0.1995,-0.1955,-0.1876,-0.1885,-0.1936,-0.1977,-0.1969,-0.2019,-0.1998,-0.1867,-0.1851,-0.1619,-0.1596,-0.1201,-0.1049,-0.094,-0.1061,-0.103,-0.1051,-0.1075,-0.1046,-0.1019,-0.0775,-0.0776,-0.0777,-0.0778,-0.0779,0,-0.1979,-0.1931,-0.19,-0.1852,-0.1866,-0.1916,-0.1948,-0.1884,-0.177,-0.1637,-0.1462,-0.1218,-0.1021,-0.0942,-0.074,-0.0672,-0.0741,-0.0605,-0.0747,-0.0785,-0.082,-0.0786,-0.0442,-0.0441,-0.0439,-0.0438,0,0,-0.195,-0.1883,-0.1832,-0.1789,-0.1782,-0.1722,-0.1687,-0.1551,-0.1431,-0.1198,-0.1022,-0.0961,-0.0953,-0.0739,-0.0666,-0.0518,-0.0645,-0.0466,-0.0745,-0.0955,-0.0988,-0.1073,-0.1061,0,0,0,0,0]},{"header":{"parameterUnit":"m.s-1","parameterCategory":2,"la1":30.2991,"la2":30.254,"lo1":-89.0895,"lo2":-89.0444,"dy":0.0017,"dx":0.0017,"nx":28,"ny":28,"refTime":"2025-07-20T21:00:00:Z","depth":"2","parameterNumber":3,"parameterNumberName":"V-component_of_CURRENTS"},"data":[0,0,0,0,0,0,0,0,0,0,0,0,0,0,0,0,0,0,0,0,0,0,0,0,0,0,0,0,0,0,0,0,0,0,0,0,0,0,0,0,0,0,0,0,0,0,0,0,0,0,0,0,0,0,0,0,0,0,-0.0126,-0.0125,0,-0.0045,-0.0044,-0.0042,0.0033,0.0034,0.0035,0.0036,0.0285,0.029,0.0296,0,0,0,0,0,0,0,0,0,0,0,0,0,-0.0174,-0.0173,-0.0126,-0.0125,-0.0124,-0.0045,-0.0044,-0.0042,0.0033,0.0034,0.0035,0.0036,0.0283,0.029,0.0297,0,0,0,0,0,0,0,0,0,0,0,0,0,-0.0126,-0.0173,-0.0126,-0.0079,-0.0074,-0.0045,-0.0043,-0.0042,0.0033,0.0034,0.0035,0.0036,0.028,0.0289,0.0298,0.0332,0,0,0.0325,0.0329,0,0,0,0,0,0,0,0,-0.0129,-0.0124,-0.0086,-0.0082,-0.0077,-0.0017,0.0031,0.0091,0.0033,-0.0005,0.0036,0.0037,0.0197,0.0213,0.0227,0.0344,0.0355,0.0326,0.0332,0.0335,0.0338,0,0,0,0,0,0,0,-0.0133,-0.0127,-0.0091,-0.0086,-0.008,-0.0048,-0.004,0.0042,0.0094,-0.0001,0.0004,0.0008,0.0201,0.0218,0.0234,0.0358,0.0326,0.0334,0.0339,0.0343,0.0633,0.0635,0,0,0,0,0,0,-0.0151,-0.0131,-0.0093,-0.0089,-0.0104,-0.0048,-0.0039,-0.0035,0.009,0.0108,0.0007,0.0011,0.0202,0.0223,0.0243,0.0315,0.0335,0.0344,0.0349,0.063,0.0633,0.0636,0,0,0,0,0,0,-0.0153,-0.0149,-0.0097,-0.011,-0.0101,-0.0049,-0.0044,-0.0034,-0.0012,0.0094,0.0116,0.0018,0.0204,0.0231,0.0312,0.0325,0.0348,0.0356,0.0628,0.0631,0.0635,0.0446,0,0,0,0,0,0,-0.0154,-0.015,-0.0153,-0.0111,-0.0101,-0.0081,-0.0045,-0.0033,-0.0013,-0.0006,0.0111,0.0134,0.0207,0.0297,0.032,0.0338,0.0363,0.0625,0.0629,0.0633,0.0449,0.0442,0.0437,0,0,0,0,0,-0.0156,-0.0161,-0.0153,-0.0149,-0.0107,-0.0082,-0.0073,-0.0031,-0.0014,-0.0007,0.0067,0.0131,0.0344,0.0304,0.0331,0.0352,0.0623,0.0628,0.0633,0.0452,0.0444,0.0437,0,0,0,0,0,0,-0.0179,-0.0154,-0.0143,-0.0139,-0.0116,-0.007,-0.0061,-0.0037,0.0022,0.0035,0.0133,0.0161,0.0256,0.0336,0.029,0.0461,0.0507,0.0517,0.036,0.0354,0.0348,0.0282,0.037,0,0,0,0,0,-0.019,-0.0189,-0.0159,-0.0156,-0.0148,-0.0108,-0.0093,-0.0067,-0.0013,0.0014,0.0093,0.0199,0.0299,0.0344,0.0454,0.0514,0.0569,0.0563,0.0557,0.055,0.0524,0.0592,0.0586,0.0653,0.0653,0.0653,0,0,-0.0198,-0.0185,-0.0184,-0.0162,-0.0139,-0.0133,-0.0095,-0.0076,-0.0067,0.0035,0.0084,0.0184,0.0318,0.0397,0.0449,0.0457,0.0568,0.0557,0.0549,0.0526,0.0596,0.0589,0.0582,0.0656,0.0656,0.0655,0,0,-0.0221,-0.0204,-0.0214,-0.0199,-0.0176,-0.0151,-0.015,-0.0105,-0.0079,-0.0031,0.0063,0.0132,0.029,0.0356,0.0418,0.0444,0.0544,0.053,0.0419,0.0485,0.0477,0.0471,0.0533,0.0534,0.0509,0.0508,0.0508,0,-0.0232,-0.0242,-0.0212,-0.0218,-0.0212,-0.0165,-0.0174,-0.0144,-0.0077,-0.0057,-0.0025,0.017,0.0258,0.034,0.0343,0.0419,0.0486,0.0415,0.0465,0.0461,0.0458,0.0523,0.0526,0.05,0.0501,0.0502,0.0502,0,-0.0263,-0.027,-0.0273,-0.0268,-0.0256,-0.0254,-0.0217,-0.0193,-0.0156,-0.0122,-0.0033,0.0067,0.0175,0.0228,0.0279,0.0328,0.0393,0.045,0.0453,0.0438,0.0511,0.0517,0.0488,0.0491,0.0493,0.0495,0,0,-0.0292,-0.0296,-0.0298,-0.0311,-0.0285,-0.0281,-0.0266,-0.0241,-0.0234,-0.0164,-0.0145,-0.0025,0.0024,0.0098,0.0188,0.0213,0.0226,0.0301,0.0308,0.0305,0.0382,0.0432,0.0445,0.0297,0.0297,0.0297,0.0438,0,-0.0327,-0.0362,-0.0348,-0.0374,-0.0387,-0.0347,-0.0343,-0.031,-0.0266,-0.023,-0.0148,-0.0077,-0.0017,0.0026,0.006,0.0215,0.0238,0.0183,0.0448,0.0455,0.0453,0.0452,0.0402,0.0524,0.0445,0.0446,0.0447,0,-0.0366,-0.0385,-0.0423,-0.0439,-0.0441,-0.0446,-0.0431,-0.0419,-0.0359,-0.0324,-0.0261,-0.0172,-0.0106,-0.0061,0.0122,0.0097,0.0206,0.0299,0.0309,0.0417,0.0516,0.0537,0.054,0.0459,0.0458,0.0457,0.0456,0,-0.041,-0.0438,-0.0474,-0.0478,-0.0482,-0.0491,-0.0489,-0.0448,-0.045,-0.0383,-0.0366,-0.0248,-0.018,-0.0041,0.0152,0.0146,0.0359,0.0388,0.0529,0.0535,0.0573,0.0582,0.0481,0.048,0.048,0.048,0.0479,0,-0.0456,-0.0486,-0.0502,-0.052,-0.0568,-0.0547,-0.0582,-0.0555,-0.053,-0.0519,-0.0422,-0.0367,-0.0173,-0.0016,0.014,0.037,0.0364,0.0498,0.0569,0.0513,0.0515,0.0529,0.0532,0.0485,0.0484,0.0483,0.0482,0,-0.0504,-0.0511,-0.0556,-0.0577,-0.0592,-0.0625,-0.0663,-0.068,-0.0642,-0.0621,-0.0605,-0.0447,-0.0224,-0.0017,0.0243,0.0366,0.0571,0.0649,0.0568,0.0625,0.0698,0.0691,0.0798,0.08,0.0803,0.0805,0.0807,0,-0.0535,-0.0561,-0.0606,-0.0642,-0.0659,-0.071,-0.0744,-0.0737,-0.0743,-0.0647,-0.0627,-0.043,-0.0246,0.0145,0.0406,0.0692,0.0671,0.0773,0.0725,0.0669,0.0728,0.0717,0.0708,0.0711,0.0712,0.0712,0.0713,0,-0.0593,-0.0602,-0.0639,-0.0707,-0.0755,-0.0809,-0.0843,-0.0864,-0.0821,-0.0771,-0.0622,-0.0469,-0.0097,0.0225,0.0574,0.0719,0.072,0.0794,0.0782,0.0635,0.0598,0.0652,0.0644,0.0718,0.0718,0.0718,0.0717,0.0717,-0.063,-0.067,-0.0709,-0.0773,-0.0824,-0.0856,-0.0871,-0.087,-0.0839,-0.07,-0.0587,-0.0289,-0.0038,0.0518,0.0672,0.0814,0.0849,0.0851,0.0845,0.0839,0.0799,0.0769,0.0914,0.0915,0.0915,0.0915,0.0916,0,-0.0672,-0.071,-0.0774,-0.0827,-0.0872,-0.0878,-0.0896,-0.0867,-0.0777,-0.0604,-0.0428,-0.0091,0.0244,0.0495,0.0746,0.0871,0.0813,0.0837,0.0732,0.0729,0.0726,0.0675,0.076,0.0759,0.0759,0.0758,0,0,-0.0693,-0.0758,-0.0785,-0.0849,-0.087,-0.0867,-0.0848,-0.0777,-0.0643,-0.0439,-0.0198,0.0088,0.0381,0.0511,0.0621,0.0701,0.0665,0.0681,0.0803,0.0662,0.0655,0.0744,0.0665,0,0,0,0,0]}],[{"header":{"parameterUnit":"m.s-1","parameterCategory":2,"la1":30.2991,"la2":30.254,"lo1":-89.0895,"lo2":-89.0444,"dy":0.0017,"dx":0.0017,"nx":28,"ny":28,"refTime":"2025-07-20T21:00:00:Z","depth":"4","parameterNumber":2,"parameterNumberName":"U-component_of_CURRENTS"},"data":[0,0,0,0,0,0,0,0,0,0,0,0,0,0,0,0,0,0,0,0,0,0,0,0,0,0,0,0,0,0,0,0,0,0,0,0,0,0,0,0,0,0,0,0,0,0,0,0,0,0,0,0,0,0,0,0,0,0,-0.1398,-0.1399,0,-0.1472,-0.1473,-0.1473,-0.1504,-0.1504,-0.1504,-0.1504,-0.1568,-0.1569,-0.1571,0,0,0,0,0,0,0,0,0,0,0,0,0,-0.1276,-0.1278,-0.1398,-0.1399,-0.14,-0.1472,-0.1473,-0.1474,-0.1504,-0.1504,-0.1504,-0.1504,-0.1567,-0.1569,-0.1571,0,0,0,0,0,0,0,0,0,0,0,0,0,-0.1335,-0.1279,-0.1397,-0.1425,-0.1429,-0.1472,-0.1473,-0.1474,-0.1504,-0.1504,-0.1504,-0.1504,-0.1566,-0.1569,-0.1571,-0.1585,0,0,-0.1579,-0.158,0,0,0,0,0,0,0,0,-0.1332,-0.134,-0.142,-0.1423,-0.1427,-0.1481,-0.1453,-0.1511,-0.1504,-0.1473,-0.1504,-0.1504,-0.1539,-0.1544,-0.1555,-0.1588,-0.1591,-0.1579,-0.1581,-0.1582,-0.1582,0,0,0,0,0,0,0,-0.1328,-0.1337,-0.1425,-0.1421,-0.1426,-0.1432,-0.1441,-0.1464,-0.1503,-0.1476,-0.1479,-0.149,-0.1541,-0.1552,-0.1556,-0.1592,-0.1579,-0.1581,-0.1583,-0.1584,-0.1679,-0.168,0,0,0,0,0,0,-0.1324,-0.1333,-0.1422,-0.1427,-0.1381,-0.1435,-0.1444,-0.1462,-0.1503,-0.151,-0.149,-0.1492,-0.1548,-0.1553,-0.1559,-0.1627,-0.1582,-0.1584,-0.1585,-0.1678,-0.1679,-0.168,0,0,0,0,0,0,-0.1321,-0.1331,-0.142,-0.1383,-0.1395,-0.1437,-0.1457,-0.1463,-0.1496,-0.1515,-0.1521,-0.1519,-0.1548,-0.1555,-0.1601,-0.1628,-0.1585,-0.1587,-0.1677,-0.1678,-0.168,-0.1732,0,0,0,0,0,0,-0.1317,-0.133,-0.1352,-0.1383,-0.1397,-0.146,-0.1457,-0.1465,-0.1503,-0.1506,-0.1541,-0.1546,-0.1549,-0.1598,-0.1604,-0.163,-0.1589,-0.1675,-0.1677,-0.1679,-0.1729,-0.1735,-0.174,0,0,0,0,0,-0.1313,-0.134,-0.1352,-0.1364,-0.1422,-0.1462,-0.147,-0.1497,-0.1505,-0.1526,-0.1551,-0.1546,-0.1614,-0.1601,-0.1608,-0.1636,-0.1674,-0.1677,-0.1679,-0.1726,-0.1734,-0.174,0,0,0,0,0,0,-0.1295,-0.1346,-0.1361,-0.1402,-0.1436,-0.1468,-0.1495,-0.1511,-0.1548,-0.1557,-0.1567,-0.1574,-0.1618,-0.1622,-0.1608,-0.1667,-0.164,-0.1644,-0.1674,-0.1681,-0.1687,-0.1689,-0.1591,0,0,0,0,0,-0.1302,-0.1339,-0.138,-0.1414,-0.1435,-0.1469,-0.1493,-0.1513,-0.1545,-0.1562,-0.1587,-0.161,-0.163,-0.1653,-0.1668,-0.1712,-0.1691,-0.1731,-0.1737,-0.1742,-0.1748,-0.1744,-0.175,-0.1688,-0.1688,-0.1688,0,0,-0.1303,-0.1338,-0.1359,-0.1414,-0.1444,-0.1482,-0.1484,-0.1529,-0.1564,-0.1563,-0.1623,-0.1632,-0.1643,-0.1685,-0.1706,-0.1698,-0.1745,-0.1745,-0.1749,-0.1752,-0.1747,-0.1753,-0.1758,-0.169,-0.1689,-0.1689,0,0,-0.1318,-0.1358,-0.1392,-0.1427,-0.1482,-0.1506,-0.1524,-0.1571,-0.1599,-0.1652,-0.1654,-0.1686,-0.1726,-0.174,-0.175,-0.18,-0.1769,-0.1801,-0.1845,-0.1842,-0.1847,-0.1851,-0.1816,-0.1817,-0.1813,-0.1813,-0.1813,0,-0.1319,-0.1367,-0.1406,-0.1447,-0.1481,-0.1519,-0.1558,-0.1594,-0.1652,-0.1675,-0.1679,-0.1735,-0.1751,-0.1793,-0.1811,-0.1814,-0.1793,-0.1819,-0.1849,-0.1853,-0.1856,-0.182,-0.182,-0.1816,-0.1815,-0.1815,-0.1815,0,-0.1351,-0.14,-0.1424,-0.149,-0.153,-0.1572,-0.1625,-0.1668,-0.1704,-0.1732,-0.1785,-0.1808,-0.1836,-0.1849,-0.1851,-0.1887,-0.1855,-0.1849,-0.183,-0.1865,-0.1824,-0.1824,-0.182,-0.1819,-0.1818,-0.1817,0,0,-0.1322,-0.1426,-0.1437,-0.1474,-0.1558,-0.1589,-0.1657,-0.1718,-0.1752,-0.181,-0.1849,-0.1898,-0.1903,-0.1914,-0.192,-0.1934,-0.194,-0.1911,-0.1909,-0.1874,-0.1907,-0.1784,-0.1771,-0.1937,-0.1937,-0.1938,-0.1862,0,-0.1335,-0.1413,-0.1465,-0.1538,-0.158,-0.1642,-0.1695,-0.1756,-0.1802,-0.1849,-0.1886,-0.192,-0.193,-0.1941,-0.1961,-0.1949,-0.1942,-0.1959,-0.188,-0.1878,-0.1763,-0.1768,-0.194,-0.1862,-0.1861,-0.1861,-0.1861,0,-0.1339,-0.1396,-0.1471,-0.1563,-0.1587,-0.1636,-0.1718,-0.1771,-0.1844,-0.1876,-0.1924,-0.1941,-0.1987,-0.1976,-0.1981,-0.199,-0.1951,-0.1935,-0.1931,-0.18,-0.1754,-0.1823,-0.1859,-0.1859,-0.1859,-0.1859,-0.1859,0,-0.1288,-0.1393,-0.1453,-0.1488,-0.1599,-0.1642,-0.1698,-0.1778,-0.1816,-0.1889,-0.1906,-0.1964,-0.1978,-0.1974,-0.1966,-0.1965,-0.1947,-0.1933,-0.1778,-0.1768,-0.1879,-0.1875,-0.1907,-0.1907,-0.1907,-0.1907,-0.1907,0,-0.1268,-0.1317,-0.1437,-0.1471,-0.1531,-0.1619,-0.1678,-0.1738,-0.1811,-0.1827,-0.191,-0.1907,-0.1978,-0.1981,-0.1964,-0.1871,-0.194,-0.1777,-0.1743,-0.19,-0.19,-0.1876,-0.1874,-0.1904,-0.1905,-0.1905,-0.1906,0,-0.1199,-0.1282,-0.1353,-0.1475,-0.1511,-0.1553,-0.1658,-0.1687,-0.1767,-0.1787,-0.1805,-0.1872,-0.1863,-0.1914,-0.1899,-0.1836,-0.1784,-0.1726,-0.1883,-0.1861,-0.1598,-0.1599,-0.1521,-0.1516,-0.1512,-0.1509,-0.1506,0,-0.1169,-0.1202,-0.1335,-0.1367,-0.1426,-0.1501,-0.1541,-0.1649,-0.1667,-0.1727,-0.1711,-0.1745,-0.1769,-0.1652,-0.1726,-0.1686,-0.1664,-0.1613,-0.1612,-0.1584,-0.156,-0.1568,-0.1574,-0.1499,-0.1498,-0.1497,-0.1496,0,-0.1104,-0.1162,-0.1222,-0.1288,-0.1343,-0.139,-0.1451,-0.1453,-0.1539,-0.1626,-0.155,-0.1531,-0.1519,-0.1531,-0.1531,-0.1501,-0.1645,-0.1569,-0.1576,-0.1575,-0.1557,-0.1538,-0.155,-0.1481,-0.1484,-0.1485,-0.1486,0,-0.105,-0.107,-0.1147,-0.1188,-0.1245,-0.1245,-0.1304,-0.1304,-0.1334,-0.1404,-0.1365,-0.1404,-0.1473,-0.1429,-0.1425,-0.1407,-0.1366,-0.1299,-0.132,-0.1337,-0.132,-0.1273,-0.1071,0,0,0,0,0,-0.0989,-0.0997,-0.1034,-0.1068,-0.1112,-0.1139,-0.122,-0.1277,-0.1357,-0.1252,-0.1303,-0.1275,-0.124,-0.1273,-0.1216,-0.1361,-0.14,-0.1288,-0.134,-0.1402,-0.1418,-0.1422,0,0,0,0,0,0,-0.0951,-0.0984,-0.0999,-0.0946,-0.0936,-0.0967,-0.1012,-0.1075,-0.1031,-0.1113,-0.1112,-0.116,-0.1176,-0.1243,-0.1173,-0.1187,-0.1182,-0.1328,-0.1324,-0.1392,-0.1407,-0.1421,-0.143,0,0,0,0,0]},{"header":{"parameterUnit":"m.s-1","parameterCategory":2,"la1":30.2991,"la2":30.254,"lo1":-89.0895,"lo2":-89.0444,"dy":0.0017,"dx":0.0017,"nx":28,"ny":28,"refTime":"2025-07-20T21:00:00:Z","depth":"4","parameterNumber":3,"parameterNumberName":"V-component_of_CURRENTS"},"data":[0,0,0,0,0,0,0,0,0,0,0,0,0,0,0,0,0,0,0,0,0,0,0,0,0,0,0,0,0,0,0,0,0,0,0,0,0,0,0,0,0,0,0,0,0,0,0,0,0,0,0,0,0,0,0,0,0,0,-0.0117,-0.0117,0,-0.0074,-0.0073,-0.0073,-0.0037,-0.0037,-0.0036,-0.0036,0.0039,0.004,0.0042,0,0,0,0,0,0,0,0,0,0,0,0,0,-0.0142,-0.0141,-0.0117,-0.0117,-0.0117,-0.0074,-0.0073,-0.0073,-0.0037,-0.0037,-0.0036,-0.0036,0.0038,0.004,0.0042,0,0,0,0,0,0,0,0,0,0,0,0,0,-0.0117,-0.0141,-0.0117,-0.0095,-0.0092,-0.0074,-0.0073,-0.0072,-0.0037,-0.0037,-0.0036,-0.0036,0.0037,0.004,0.0043,0.0052,0,0,0.0051,0.0052,0,0,0,0,0,0,0,0,-0.0118,-0.0116,-0.0098,-0.0096,-0.0094,-0.0062,-0.0055,-0.003,-0.0037,-0.0056,-0.0036,-0.0036,0.0007,0.0012,0.0021,0.0056,0.0059,0.0051,0.0053,0.0054,0.0055,0,0,0,0,0,0,0,-0.012,-0.0117,-0.0099,-0.0098,-0.0095,-0.0078,-0.0074,-0.005,-0.0025,-0.0055,-0.0052,-0.005,0.0009,0.0018,0.0023,0.006,0.0051,0.0053,0.0055,0.0056,0.0106,0.0106,0,0,0,0,0,0,-0.013,-0.0119,-0.01,-0.0097,-0.0107,-0.0078,-0.0073,-0.0071,-0.0026,-0.002,-0.0051,-0.0049,0.0014,0.002,0.0026,0.0039,0.0054,0.0056,0.0058,0.0107,0.0106,0.0106,0,0,0,0,0,0,-0.0131,-0.0129,-0.0102,-0.0108,-0.0104,-0.0078,-0.0076,-0.0071,-0.0061,-0.0024,-0.0016,-0.0046,0.0014,0.0022,0.0043,0.0042,0.0057,0.006,0.0107,0.0106,0.0106,0.0065,0,0,0,0,0,0,-0.0132,-0.013,-0.0133,-0.0109,-0.0104,-0.0097,-0.0076,-0.007,-0.0061,-0.0058,-0.0018,-0.0011,0.0015,0.0038,0.0045,0.0046,0.0062,0.0107,0.0107,0.0106,0.0066,0.0063,0.006,0,0,0,0,0,-0.0133,-0.0138,-0.0133,-0.0131,-0.0109,-0.0097,-0.0093,-0.0072,-0.0061,-0.0061,-0.0034,-0.0012,0.004,0.004,0.0048,0.005,0.0107,0.0107,0.0106,0.0068,0.0064,0.006,0,0,0,0,0,0,-0.0148,-0.0135,-0.0128,-0.0129,-0.0118,-0.0092,-0.009,-0.0076,-0.0055,-0.0051,-0.0015,-0.0006,0.0008,0.0034,0.0033,0.0062,0.0078,0.0079,0.0046,0.0042,0.0039,0.0033,0.0064,0,0,0,0,0,-0.0155,-0.0157,-0.014,-0.0141,-0.0137,-0.0115,-0.0108,-0.0095,-0.0073,-0.0064,-0.0037,-0.0009,0.0012,0.0031,0.005,0.007,0.0108,0.0076,0.0073,0.007,0.0071,0.0137,0.0141,0.0104,0.0104,0.0104,0,0,-0.0161,-0.0155,-0.0156,-0.0145,-0.0133,-0.0133,-0.0109,-0.0102,-0.0099,-0.0059,-0.0046,-0.0024,0.0012,0.0029,0.0039,0.0053,0.0097,0.0069,0.0066,0.0069,0.0137,0.0141,0.0145,0.0104,0.0104,0.0104,0,0,-0.0179,-0.017,-0.018,-0.0173,-0.0162,-0.0148,-0.0149,-0.0127,-0.0114,-0.0101,-0.0074,-0.0049,-0.0018,0.0012,0.003,0.0023,0.007,0.0025,0.0016,0.0081,0.0085,0.0089,0.0128,0.0136,0.0033,0.0033,0.0033,0,-0.0189,-0.0198,-0.018,-0.0187,-0.0187,-0.0158,-0.0168,-0.0149,-0.0124,-0.0114,-0.0104,-0.0052,-0.0023,0.0009,0.0004,0.0018,0.0053,0.0027,0.0078,0.0083,0.0088,0.0127,0.0136,0.0031,0.0031,0.0032,0.0032,0,-0.0213,-0.0221,-0.0225,-0.0226,-0.0222,-0.0224,-0.0202,-0.0192,-0.0174,-0.0153,-0.0125,-0.0082,-0.0048,-0.0036,-0.0018,0.0025,0.0037,0.0059,0.0089,0.0089,0.013,0.014,0.0028,0.0029,0.003,0.003,0,0,-0.0234,-0.0243,-0.0245,-0.0258,-0.0244,-0.0245,-0.0236,-0.0221,-0.0218,-0.0178,-0.0166,-0.0118,-0.009,-0.0067,-0.0034,0.0025,0.0082,0.0052,0.0057,0.0091,0.021,0.0185,0.0194,0.0118,0.012,0.0121,0.022,0,-0.026,-0.029,-0.0282,-0.0307,-0.032,-0.0295,-0.0295,-0.0274,-0.0248,-0.0228,-0.0164,-0.0144,-0.0102,-0.0091,-0.0023,0.0049,0.011,0.0052,0.0204,0.0208,0.0187,0.0205,0.0127,0.0228,0.023,0.0232,0.0233,0,-0.0285,-0.0304,-0.0338,-0.0358,-0.0361,-0.0369,-0.0363,-0.0358,-0.0313,-0.0294,-0.0242,-0.0199,-0.0122,-0.0087,0.0069,0.003,0.0115,0.0182,0.0188,0.0188,0.0203,0.0232,0.0253,0.0251,0.025,0.0248,0.0247,0,-0.0313,-0.0341,-0.0374,-0.0379,-0.0393,-0.0403,-0.0405,-0.0378,-0.038,-0.0332,-0.0327,-0.0224,-0.018,-0.005,0.0088,0.0082,0.0261,0.0273,0.0334,0.0333,0.0345,0.034,0.0394,0.0394,0.0393,0.0393,0.0393,0,-0.0341,-0.0367,-0.0393,-0.041,-0.0453,-0.0443,-0.0471,-0.0457,-0.044,-0.0445,-0.0364,-0.0338,-0.0164,-0.0047,0.0082,0.0238,0.0268,0.0335,0.0363,0.0321,0.0312,0.0351,0.0345,0.0397,0.0396,0.0395,0.0395,0,-0.0363,-0.0379,-0.0423,-0.0455,-0.0469,-0.0497,-0.0527,-0.0543,-0.052,-0.0522,-0.0512,-0.0407,-0.0246,-0.007,0.0143,0.022,0.0375,0.0427,0.0356,0.0377,0.04,0.0391,0.0494,0.0494,0.0494,0.0494,0.0494,0,-0.0379,-0.0403,-0.046,-0.0496,-0.0515,-0.0555,-0.0586,-0.0583,-0.0593,-0.0563,-0.0562,-0.0425,-0.0332,-0.0044,0.0133,0.0383,0.0416,0.0465,0.0444,0.0397,0.0415,0.0405,0.0395,0.0494,0.0494,0.0494,0.0494,0,-0.0408,-0.0429,-0.0467,-0.0541,-0.0587,-0.0637,-0.0672,-0.0686,-0.0677,-0.0665,-0.0586,-0.0453,-0.0271,-0.0046,0.0153,0.0326,0.0412,0.0467,0.0467,0.0448,0.0399,0.0414,0.0404,0.0494,0.0494,0.0494,0.0494,0,-0.043,-0.0468,-0.0521,-0.0581,-0.0648,-0.0697,-0.0711,-0.0707,-0.0708,-0.066,-0.0632,-0.0444,-0.0326,-0.0075,0.0104,0.0277,0.031,0.0323,0.0332,0.0334,0.0254,0.0166,0.022,0,0,0,0,0,-0.0449,-0.0493,-0.0558,-0.0628,-0.0693,-0.0723,-0.0762,-0.0763,-0.0752,-0.0698,-0.066,-0.0487,-0.023,-0.0115,0.0062,0.0097,0.033,0.03,0.0348,0.0496,0.0495,0.0426,0,0,0,0,0,0,-0.0467,-0.0528,-0.056,-0.0649,-0.0697,-0.0764,-0.0785,-0.0777,-0.0729,-0.0694,-0.053,-0.048,-0.0193,-0.0307,0.0062,0.0109,0.0148,0.0429,0.0431,0.0496,0.0496,0.0495,0.0424,0,0,0,0,0]}]]